Torna al catalogo

DEAR-5

AttivoRadioamatoreVLEO
NORAD 67070·PAYLOAD·🇨🇳 China

Lanciato Dec 13, 2025 da Jiuquan Satellite Launch Center

Loading…

Prossimi Passaggi (prossime 24 ore)

TLE

In scadenzaSource: Space-Track

Epoca: Sep 12, 2026, 13:23 UTC

1 67070U 25296B   26255.55778079  .00004872  00000-0  18600-3 0  9991
2 67070  41.3618 337.5261 0037980  59.3048 301.1511 15.26792809 41565

Traccia DEAR-5 in tempo reale con AllMySat

Download on the App Store